| time (UTC) | temp C | wind direction | speed KPH | gust KPH | rain 1hr cm | rain 24hr cm | rain mn cm | humidity % | barometer mb |
| 20260504081607 | 12 | 0 | 0.0 | 0.0 | 0.00 | 0.00 | 0.00 | 93 | 1016.5 |
| 20260504060108 | 13 | 0 | 0.0 | 0.0 | 0.00 | 0.00 | 0.00 | 89 | 1018.2 |
| 20260504050111 | 14 | 0 | 0.0 | 1.6 | 0.00 | 0.00 | 0.00 | 89 | 1018.8 |
| 20260504044551 | 13 | 0 | 0.0 | 0.0 | 0.00 | 0.00 | 0.00 | 85 | 1018.7 |
| 20260504043101 | 14 | 0 | 0.0 | 0.0 | 0.00 | 0.00 | 0.00 | 83 | 1018.9 |
| 20260504041554 | 15 | 0 | 0.0 | 0.0 | 0.00 | 0.00 | 0.00 | 82 | 1019.1 |
| 20260504040058 | 16 | 0 | 0.0 | 0.0 | 0.00 | 0.00 | 0.00 | 80 | 1018.9 |
| 20260504034551 | 16 | 0 | 0.0 | 0.0 | 0.00 | 0.00 | 0.00 | 77 | 1018.8 |
| 20260504033056 | 17 | 0 | 0.0 | 3.2 | 0.00 | 0.00 | 0.00 | 75 | 1018.9 |
| 20260504031557 | 18 | 0 | 1.6 | 6.4 | 0.00 | 0.00 | 0.00 | 73 | 1018.8 |
| 20260504030054 | 18 | 196 | 0.0 | 9.7 | 0.00 | 0.00 | 0.00 | 72 | 1018.6 |
| 20260504024553 | 18 | 229 | 1.6 | 6.4 | 0.00 | 0.00 | 0.00 | 71 | 1018.6 |
| 20260504023048 | 18 | 0 | 0.0 | 3.2 | 0.00 | 0.00 | 0.00 | 72 | 1018.4 |
| 20260504021551 | 18 | 0 | 0.0 | 4.8 | 0.00 | 0.00 | 0.00 | 70 | 1018.2 |
| 20260504020052 | 19 | 0 | 0.0 | 4.8 | 0.00 | 0.00 | 0.00 | 69 | 1018.2 |
| 20260504014557 | 19 | 209 | 0.0 | 3.2 | 0.00 | 0.00 | 0.00 | 68 | 1018.0 |
| 20260504013105 | 20 | 0 | 0.0 | 3.2 | 0.00 | 0.00 | 0.00 | 66 | 1018.0 |
| 20260504011554 | 20 | 0 | 0.0 | 6.4 | 0.00 | 0.00 | 0.00 | 64 | 1017.9 |
| 20260504010111 | 21 | 0 | 0.0 | 3.2 | 0.00 | 0.00 | 0.00 | 60 | 1017.8 |
| 20260504004552 | 22 | 144 | 0.0 | 4.8 | 0.00 | 0.00 | 0.00 | 58 | 1017.8 |
| 20260504003053 | 22 | 238 | 1.6 | 6.4 | 0.00 | 0.00 | 0.00 | 57 | 1018.0 |
| 20260504001602 | 23 | 245 | 1.6 | 11.3 | 0.00 | 0.00 | 0.00 | 55 | 1017.9 |
| 20260504000058 | 23 | 252 | 1.6 | 9.7 | 0.00 | 0.00 | 0.00 | 53 | 1017.9 |
| 20260503234550 | 25 | 281 | 4.8 | 11.3 | 0.00 | 0.00 | 0.00 | 50 | 1017.8 |
| 20260503233101 | 26 | 214 | 3.2 | 11.3 | 0.00 | 0.00 | 0.00 | 44 | 1018.0 |
| 20260503231553 | 26 | 253 | 1.6 | 4.8 | 0.00 | 0.00 | 0.00 | 44 | 1018.1 |
| 20260503230054 | 27 | 230 | 0.0 | 6.4 | 0.00 | 0.00 | 0.00 | 47 | 1018.2 |
| 20260503224547 | 27 | 0 | 1.6 | 8.0 | 0.00 | 0.00 | 0.00 | 41 | 1018.3 |
| 20260503223051 | 27 | 304 | 3.2 | 6.4 | 0.00 | 0.00 | 0.00 | 43 | 1018.6 |
| 20260503221558 | 26 | 0 | 3.2 | 9.7 | 0.00 | 0.00 | 0.00 | 42 | 1018.9 |
| 20260503220103 | 26 | 213 | 1.6 | 8.0 | 0.00 | 0.00 | 0.00 | 41 | 1019.1 |
| 20260503214555 | 27 | 160 | 3.2 | 8.0 | 0.00 | 0.00 | 0.00 | 43 | 1019.0 |
| 20260503213051 | 27 | 248 | 0.0 | 8.0 | 0.00 | 0.00 | 0.00 | 39 | 1019.2 |
| 20260503211547 | 27 | 174 | 0.0 | 11.3 | 0.00 | 0.00 | 0.00 | 39 | 1019.6 |
| 20260503210055 | 27 | 0 | 1.6 | 8.0 | 0.00 | 0.00 | 0.00 | 42 | 1019.6 |
| 20260503204601 | 26 | 139 | 0.0 | 9.7 | 0.00 | 0.00 | 0.00 | 42 | 1019.9 |
| 20260503203056 | 26 | 262 | 1.6 | 11.3 | 0.00 | 0.00 | 0.00 | 45 | 1020.2 |
| 20260503201549 | 26 | 178 | 1.6 | 11.3 | 0.00 | 0.00 | 0.00 | 46 | 1020.3 |
| 20260503200050 | 27 | 223 | 1.6 | 11.3 | 0.00 | 0.00 | 0.00 | 41 | 1020.7 |
| 20260503194607 | 27 | 0 | 0.0 | 9.7 | 0.00 | 0.00 | 0.00 | 45 | 1020.8 |
| 20260503193050 | 26 | 0 | 0.0 | 11.3 | 0.00 | 0.00 | 0.00 | 41 | 1021.1 |
| 20260503191548 | 26 | 140 | 1.6 | 11.3 | 0.00 | 0.00 | 0.00 | 44 | 1021.3 |
| 20260503190058 | 26 | 249 | 0.0 | 9.7 | 0.00 | 0.00 | 0.00 | 42 | 1021.6 |
| 20260503184554 | 27 | 230 | 0.0 | 9.7 | 0.00 | 0.00 | 0.00 | 43 | 1021.9 |
| 20260503183054 | 26 | 234 | 1.6 | 6.4 | 0.00 | 0.00 | 0.00 | 46 | 1022.1 |
| 20260503181550 | 26 | 0 | 0.0 | 9.7 | 0.00 | 0.00 | 0.00 | 47 | 1022.3 |
| 20260503180105 | 26 | 231 | 4.8 | 8.0 | 0.00 | 0.00 | 0.00 | 48 | 1022.5 |
| 20260503174549 | 26 | 0 | 1.6 | 6.4 | 0.00 | 0.00 | 0.00 | 47 | 1022.9 |
| 20260503173145 | 25 | 0 | 0.0 | 8.0 | 0.00 | 0.00 | 0.00 | 47 | 1023.1 |
| 20260503171554 | 25 | 242 | 1.6 | 6.4 | 0.00 | 0.00 | 0.00 | 47 | 1023.3 |